Location: Marcé
(47.5801°N, 0.3280°W)
Time: 01:01:02
(UTC+01:00)

Vanguard 2 - Pass Details

Date: 02 December 2021
Orbit: 553 x 2936 km, 32.9° (Epoch: 20 January)

Event Time Altitude Azimuth Distance (km) Brightness Sun altitude
Rises 20:46:51 0° 258° (WSW) 4,650 12.4 -35.5°
Reaches altitude 10° 20:51:45 10° 235° (SW) 4,151 11.7 -36.3°
Maximum altitude 20:57:01 14° 207° (SSW) 4,262 11.4 -37.2°
Drops below altitude 10° 21:03:18 10° 181° (S) 5,081 11.6 -38.2°
Sets 21:10:51 0° 161° (SSE) 6,502 12.0 -39.5°
